P/2019 A7 ( PanSTARRS )

Japanese version
Home page
Updated on May 20, 2019

---------------------------------------------------------------------

* Profile

Discovery Date January 8, 2019
Magnitude 20.4 mag
Discoverer Pan-STARRS 1 telescope (Haleakala)

* Pictures

* Orbital Elements

Epoch 2018 Jan. 2.0 TT = JDT 2458120.5
T 2018 Jan. 8.33078 TT                                  MPCW
q   2.6760274            (2000.0)            P               Q
n   0.17309685     Peri.  119.60863     +0.72375338     -0.62139947
a   3.1886727      Node   280.52535     +0.47888354     +0.76538488
e   0.1607708      Incl.   17.77070     +0.49684163     +0.16747740
P   5.69
From 89 observations 2017 Oct. 1-2019 Feb. 11, mean residual 0".4.

* Magnitudes Graph

        m1 = 14.0 + 5 log d + 10.0 log r

---------------------------------------------------------------------

The orbital elements are published on M.P.E.C. 2019-J142.
The magnitudes graphs are made with Comet for Windows.

---------------------------------------------------------------------

Copyright(C) Seiichi Yoshida (comet@aerith.net). All rights reserved.